| time (UTC) | temp F | wind direction | speed MPH | gust MPH | rain 1hr in | rain 24hr in | rain mn in | humidity % | barometer mb |
| 20260510042031 | 39 | 140 | 10.0 | 0.0 | 0.00 | 0.00 | 0.00 | 93 | |
| 20260510031728 | 39 | 140 | 12.0 | 0.0 | 0.00 | 0.00 | 0.00 | 93 | |
| 20260510021729 | 39 | 140 | 9.0 | 0.0 | 0.00 | 0.00 | 0.00 | 93 | |
| 20260510011929 | 41 | 130 | 9.0 | 0.0 | 0.00 | 0.00 | 0.00 | 86 | |
| 20260510001729 | 41 | 140 | 12.0 | 0.0 | 0.00 | 0.00 | 0.00 | 93 | |
| 20260509231728 | 43 | 130 | 14.0 | 0.0 | 0.00 | 0.00 | 0.00 | 86 | |
| 20260509222035 | 43 | 130 | 13.0 | 0.0 | 0.00 | 0.00 | 0.00 | 86 | |
| 20260509211729 | 43 | 120 | 9.0 | 0.0 | 0.00 | 0.00 | 0.00 | 81 | |
| 20260509201728 | 43 | 120 | 9.0 | 0.0 | 0.00 | 0.00 | 0.00 | 81 | |
| 20260509191829 | 45 | 70 | 9.0 | 0.0 | 0.00 | 0.00 | 0.00 | 75 | |
| 20260509181729 | 46 | 60 | 9.0 | 0.0 | 0.00 | 0.00 | 0.00 | 81 | |
| 20260509171729 | 48 | 50 | 9.0 | 0.0 | 0.00 | 0.00 | 0.00 | 76 | |
| 20260509162031 | 50 | 20 | 7.0 | 0.0 | 0.00 | 0.00 | 0.00 | 71 | |
| 20260509151729 | 50 | 40 | 7.0 | 0.0 | 0.00 | 0.00 | 0.00 | 76 | |
| 20260509141728 | 50 | 30 | 5.0 | 0.0 | 0.00 | 0.00 | 0.00 | 76 | |
| 20260509131828 | 48 | 20 | 6.0 | 0.0 | 0.00 | 0.00 | 0.00 | 76 | |
| 20260509121728 | 46 | 10 | 5.0 | 0.0 | 0.00 | 0.00 | 0.00 | 81 | |
| 20260509111728 | 46 | 20 | 5.0 | 0.0 | 0.00 | 0.00 | 0.00 | 81 | |
| 20260509101929 | 45 | 10 | 6.0 | 0.0 | 0.00 | 0.00 | 0.00 | 81 | |
| 20260509091728 | 46 | 50 | 3.0 | 0.0 | 0.00 | 0.00 | 0.00 | 81 | |
| 20260509081729 | 45 | 10 | 7.0 | 0.0 | 0.00 | 0.00 | 0.00 | 81 | |
| 20260509071828 | 45 | 50 | 7.0 | 0.0 | 0.00 | 0.00 | 0.00 | 81 | |
| 20260509061729 | 43 | 80 | 5.0 | 0.0 | 0.00 | 0.00 | 0.00 | 86 | |
| 20260509051728 | 41 | 80 | 5.0 | 0.0 | 0.00 | 0.00 | 0.00 | 86 |